Home   Weather   State College   Past weeks

Flag for USA Past Weather in State College, Pennsylvania, USA — Yesterday and Last 2 Weeks

Now
37 °F

Passing clouds.


Feels Like: 32 °F
Forecast: 24 / 33 °F
Wind: 7 mph from West

Location: University Park Airport

Current Time: Dec 7, 2016 at 7:18:43 pm

Latest Report: Dec 7, 2016 at 5:53 pm


Visibility: 10 mi

Pressure: 30.03 "Hg

Humidity: 56%

Dew Point: 23 °F

Location of State CollegeLocation

Past Weather in State College — Graph

°F

State College Temperature Yesterday

Maximum temperature yesterday: 37 °F (at 11:53 am)
Minimum temperature yesterday: 26 °F (at 4:15 am)
Average temperature yesterday: 31 °F

High & Low Weather Summary for the Past Weeks

 TemperatureHumidityPressure
High53 °F (Nov 30, 10:15 pm)100% (Nov 24, 5:53 pm)30.32 "Hg (Nov 24, 5:53 pm)
Low25 °F (Nov 23, 5:53 am)49% (Dec 7, 1:53 pm)29.46 "Hg (Nov 30, 10:55 pm)
Average38 °F82%30.04 "Hg
* Reported Nov 22 5:53 pm — Dec 7 5:53 pm, State College, Weather by CustomWeather, © 2016

Note: Actual official high and low records may vary slightly from our data, if they occured in-between our weather recording intervals... More about our weather records

Advertising

State College Weather History for the Previous 24 Hours

Scroll right to see more
 ConditionsComfort  
Time TempWeatherWind HumidityBarometerVisibility
5:53 pm
Wed, Dec 7
37 °FPassing clouds.7 mph56%30.03 "Hg10 mi
4:53 pm39 °FClear.10 mph52%30.02 "Hg10 mi
3:53 pm41 °FSunny.7 mph49%30.00 "Hg10 mi
2:53 pm41 °FSunny.9 mph53%29.98 "Hg10 mi
1:53 pm41 °FSunny.12 mph49%29.97 "Hg10 mi
12:53 pm43 °FPassing clouds.9 mph57%29.98 "Hg10 mi
11:53 am41 °FScattered clouds.12 mph66%29.98 "Hg10 mi
10:53 am39 °FScattered clouds.10 mph70%30.01 "Hg10 mi
9:53 am39 °FPartly sunny.10 mph70%30.01 "Hg10 mi
8:53 am37 °FScattered clouds.9 mph81%30.01 "Hg10 mi
7:53 am37 °FOvercast.9 mph81%29.98 "Hg10 mi
6:53 am37 °FLight rain. Overcast.9 mph93%29.96 "Hg5 mi
5:53 am36 °FFog.5 mph100%29.92 "Hg4 mi
5:35 am36 °FFog.6 mph97%29.91 "Hg5 mi
5:15 am35 °FFog.5 mph99%29.90 "Hg5 mi
4:55 am36 °FFog.No wind98%29.90 "Hg4 mi
4:35 am35 °FFog.3 mph99%29.90 "Hg5 mi
4:15 am35 °FFog.No wind98%29.89 "Hg3 mi
3:55 am35 °FFog.No wind99%29.88 "Hg3 mi
3:35 am35 °FFog.5 mph99%29.88 "Hg5 mi
3:15 am35 °FFog.3 mph98%29.87 "Hg4 mi
2:55 am35 °FLight rain. Mostly cloudy.No wind98%29.87 "Hg2 mi
2:35 am35 °FFog.3 mph100%29.87 "Hg3 mi
2:15 am35 °FDrizzle. Mostly cloudy.No wind98%29.85 "Hg2 mi
1:55 am34 °FLight rain. Low clouds.No wind99%29.85 "Hg1 mi
1:35 am34 °FLight snow. Low clouds.5 mph99%29.85 "Hg2 mi
1:15 am34 °FLight snow. Low clouds.3 mph99%29.84 "Hg2 mi
12:55 am34 °FLight rain. Low clouds.No wind99%29.84 "Hg2 mi
12:35 am34 °FFog.3 mph99%29.84 "Hg2 mi
12:15 am34 °FLight snow. Mostly cloudy.No wind99%29.83 "Hg2 mi
11:55 pm
Tue, Dec 6
34 °FLight snow. Mostly cloudy.No wind98%29.83 "Hg2 mi
11:15 pm34 °FLight rain. Mostly cloudy.3 mph99%29.83 "Hg3 mi
10:55 pm34 °FFog.No wind98%29.82 "Hg3 mi
10:35 pm34 °FFog.5 mph98%29.82 "Hg3 mi
10:15 pm34 °FFog.3 mph98%29.81 "Hg3 mi
8:53 pm34 °FRain. Fog.6 mph93%29.84 "Hg2 mi
7:53 pm36 °FDrizzle. Overcast.5 mph87%29.82 "Hg4 mi
Weather by CustomWeather, © 2016

See weather overviewHow to use our weather pages